Torna al catalogo

KUIPER-00562

AttivoComunicazioniLEO
NORAD 69270·PAYLOAD·🇺🇸 United States

Lanciato May 29, 2026 da Vandenberg Space Force Base

Loading…

Prossimi Passaggi (prossime 24 ore)

TLE

AggiornatoSource: CelesTrak SupGP

Epoca: Sep 14, 2026, 22:51 UTC

1 69270C 26118D   26257.95247685 -.00172590  00000+0 -22610-1 0  2574
2 69270  51.9036 353.6616 0000354  91.6285 297.8676 14.80071035    18

Traccia KUIPER-00562 in tempo reale con AllMySat

Download on the App Store